Time,TemperatureF,DewpointF,PressureIn,WindDirection,WindDirectionDegrees,WindSpeedMPH,WindSpeedGustMPH,Humidity,HourlyPrecipIn,Conditions,Clouds,dailyrainin,SoftwareType,DateUTC
2013-06-14 00:00:00,74.0,69.2,30.12,NE,42,4.0,18.0,85,0.00,,---,0.04,VWS V14.00,2013-06-14 10:00:00,
2013-06-14 00:05:00,74.1,69.7,30.12,NE,41,3.0,7.0,86,0.00,,---,0.00,VWS V14.00,2013-06-14 10:05:00,
2013-06-14 00:10:00,74.2,69.4,30.11,NE,41,0.0,10.0,85,0.00,,---,0.00,VWS V14.00,2013-06-14 10:10:00,
2013-06-14 00:15:00,74.4,69.6,30.11,NNE,25,2.0,12.0,85,0.00,,---,0.00,VWS V14.00,2013-06-14 10:15:00,
2013-06-14 00:20:00,74.4,69.3,30.11,ESE,123,4.0,12.0,84,0.00,,---,0.00,VWS V14.00,2013-06-14 10:20:00,
2013-06-14 00:25:00,74.6,69.4,30.10,SSE,163,2.0,12.0,84,0.00,,---,0.00,VWS V14.00,2013-06-14 10:25:00,
2013-06-14 00:30:00,74.7,69.6,30.10,NNE,26,8.0,14.0,84,0.00,,---,0.00,VWS V14.00,2013-06-14 10:30:00,
2013-06-14 00:35:00,74.8,69.3,30.11,SSE,153,8.0,18.0,83,0.00,,---,0.00,VWS V14.00,2013-06-14 10:35:00,
2013-06-14 00:40:00,73.9,68.4,30.11,SE,128,5.0,18.0,83,0.45,,---,0.02,VWS V14.00,2013-06-14 10:40:00,
2013-06-14 00:45:00,73.2,68.4,30.11,South,174,0.0,18.0,85,0.10,,---,0.02,VWS V14.00,2013-06-14 10:45:00,
2013-06-14 00:50:00,73.0,68.6,30.10,SSE,147,6.0,18.0,86,0.06,,---,0.02,VWS V14.00,2013-06-14 10:50:00,
2013-06-14 00:55:00,73.0,68.9,30.10,SE,146,1.0,18.0,87,0.04,,---,0.02,VWS V14.00,2013-06-14 10:55:00,
2013-06-14 01:00:00,73.1,69.3,30.10,ESE,112,2.0,18.0,88,0.00,,---,0.02,VWS V14.00,2013-06-14 11:00:00,
2013-06-14 01:05:00,73.1,69.3,30.10,ESE,117,0.0,6.0,88,0.00,,---,0.02,VWS V14.00,2013-06-14 11:05:00,
2013-06-14 01:10:00,73.3,69.5,30.09,ESE,117,1.0,6.0,88,0.00,,---,0.02,VWS V14.00,2013-06-14 11:10:00,
2013-06-14 01:15:00,73.4,69.6,30.08,ESE,119,0.0,6.0,88,0.00,,---,0.02,VWS V14.00,2013-06-14 11:15:00,
2013-06-14 01:20:00,73.5,69.7,30.08,ESE,123,0.0,6.0,88,0.00,,---,0.02,VWS V14.00,2013-06-14 11:20:00,
2013-06-14 01:25:00,73.5,69.7,30.09,ESE,115,1.0,7.0,88,0.00,,---,0.02,VWS V14.00,2013-06-14 11:25:00,
2013-06-14 01:30:00,73.6,69.5,30.09,ESE,119,13.0,15.0,87,0.00,,---,0.02,VWS V14.00,2013-06-14 11:30:00,
2013-06-14 01:35:00,73.3,69.2,30.09,East,97,7.0,13.0,87,0.00,,---,0.03,VWS V14.00,2013-06-14 11:35:00,
2013-06-14 01:40:00,73.2,69.1,30.08,SSE,159,0.0,13.0,87,0.11,,---,0.04,VWS V14.00,2013-06-14 11:40:00,
2013-06-14 01:45:00,73.1,69.3,30.08,SSE,159,0.0,13.0,88,0.08,,---,0.04,VWS V14.00,2013-06-14 11:45:00,
2013-06-14 01:50:00,73.1,69.3,30.08,SSE,159,0.0,13.0,88,0.05,,---,0.04,VWS V14.00,2013-06-14 11:50:00,
2013-06-14 01:55:00,73.0,69.2,30.08,SSE,159,0.0,13.0,88,0.00,,---,0.04,VWS V14.00,2013-06-14 11:55:00,
2013-06-14 02:00:00,73.0,69.2,30.08,ENE,59,7.0,13.0,88,0.00,,---,0.04,VWS V14.00,2013-06-14 12:00:00,
2013-06-14 02:05:00,73.3,69.5,30.07,NE,52,4.0,11.0,88,0.00,,---,0.04,VWS V14.00,2013-06-14 12:05:00,
2013-06-14 02:10:00,73.7,69.6,30.07,NE,48,2.0,11.0,87,0.00,,---,0.04,VWS V14.00,2013-06-14 12:10:00,
2013-06-14 02:15:00,73.8,69.3,30.07,NE,49,13.0,13.0,86,0.00,,---,0.04,VWS V14.00,2013-06-14 12:15:00,
2013-06-14 02:20:00,74.0,68.9,30.07,SSE,151,5.0,18.0,84,0.00,,---,0.04,VWS V14.00,2013-06-14 12:20:00,
2013-06-14 02:25:00,74.2,69.1,30.07,ENE,64,4.0,18.0,84,0.00,,---,0.04,VWS V14.00,2013-06-14 12:25:00,
2013-06-14 02:30:00,74.4,69.3,30.07,North,5,6.0,18.0,84,0.00,,---,0.04,VWS V14.00,2013-06-14 12:30:00,
2013-06-14 02:35:00,74.6,69.4,30.07,ENE,61,2.0,14.0,84,0.00,,---,0.04,VWS V14.00,2013-06-14 12:35:00,
2013-06-14 02:40:00,74.8,69.7,30.07,SE,146,1.0,14.0,84,0.00,,---,0.04,VWS V14.00,2013-06-14 12:40:00,
2013-06-14 02:45:00,74.7,69.2,30.07,NE,49,6.0,14.0,83,0.00,,---,0.04,VWS V14.00,2013-06-14 12:45:00,
2013-06-14 02:50:00,74.7,69.2,30.07,NNE,26,3.0,14.0,83,0.00,,---,0.04,VWS V14.00,2013-06-14 12:50:00,
2013-06-14 02:55:00,74.7,68.8,30.07,ENE,76,2.0,14.0,82,0.00,,---,0.04,VWS V14.00,2013-06-14 12:55:00,
2013-06-14 03:00:00,74.8,68.9,30.07,East,80,6.0,14.0,82,0.00,,---,0.04,VWS V14.00,2013-06-14 13:00:00,
2013-06-14 03:05:00,74.8,68.9,30.07,SE,141,8.0,9.0,82,0.00,,---,0.04,VWS V14.00,2013-06-14 13:05:00,
2013-06-14 03:10:00,74.8,68.9,30.07,NE,56,5.0,13.0,82,0.00,,---,0.04,VWS V14.00,2013-06-14 13:10:00,
2013-06-14 03:15:00,75.0,69.1,30.06,East,99,4.0,13.0,82,0.00,,---,0.04,VWS V14.00,2013-06-14 13:15:00,
2013-06-14 03:20:00,75.0,68.8,30.07,East,82,6.0,13.0,81,0.00,,---,0.04,VWS V14.00,2013-06-14 13:20:00,
2013-06-14 03:25:00,74.9,68.7,30.07,ENE,67,5.0,13.0,81,0.00,,---,0.04,VWS V14.00,2013-06-14 13:25:00,
2013-06-14 03:30:00,74.9,68.7,30.07,East,81,2.0,13.0,81,0.00,,---,0.04,VWS V14.00,2013-06-14 13:30:00,
2013-06-14 03:35:00,75.0,68.8,30.07,ENE,57,0.0,6.0,81,0.00,,---,0.04,VWS V14.00,2013-06-14 13:35:00,
2013-06-14 03:40:00,75.1,68.9,30.07,ENE,67,7.0,14.0,81,0.00,,---,0.04,VWS V14.00,2013-06-14 13:40:00,
2013-06-14 03:45:00,75.2,69.0,30.07,NE,52,2.0,14.0,81,0.00,,---,0.04,VWS V14.00,2013-06-14 13:45:00,
2013-06-14 03:50:00,75.3,69.1,30.07,NNE,32,1.0,14.0,81,0.00,,---,0.04,VWS V14.00,2013-06-14 13:50:00,
2013-06-14 03:55:00,75.2,69.0,30.07,ENE,61,2.0,14.0,81,0.00,,---,0.04,VWS V14.00,2013-06-14 13:55:00,
2013-06-14 04:00:00,75.2,68.6,30.07,NE,40,5.0,14.0,80,0.00,,---,0.04,VWS V14.00,2013-06-14 14:00:00,
2013-06-14 04:05:00,75.1,68.5,30.07,NE,49,2.0,10.0,80,0.00,,---,0.04,VWS V14.00,2013-06-14 14:05:00,
2013-06-14 04:10:00,75.2,68.6,30.07,NE,44,3.0,10.0,80,0.00,,---,0.04,VWS V14.00,2013-06-14 14:10:00,
2013-06-14 04:15:00,75.1,68.5,30.07,NE,42,7.0,15.0,80,0.00,,---,0.04,VWS V14.00,2013-06-14 14:15:00,
2013-06-14 04:20:00,75.1,68.2,30.07,ENE,61,1.0,15.0,79,0.00,,---,0.04,VWS V14.00,2013-06-14 14:20:00,
2013-06-14 04:25:00,75.1,68.5,30.07,NE,53,3.0,15.0,80,0.00,,---,0.04,VWS V14.00,2013-06-14 14:25:00,
2013-06-14 04:30:00,75.2,68.6,30.06,NE,55,5.0,15.0,80,0.00,,---,0.04,VWS V14.00,2013-06-14 14:30:00,
2013-06-14 04:35:00,75.3,68.7,30.07,ENE,60,6.0,6.0,80,0.00,,---,0.04,VWS V14.00,2013-06-14 14:35:00,
2013-06-14 04:40:00,75.2,68.6,30.07,East,94,4.0,18.0,80,0.00,,---,0.04,VWS V14.00,2013-06-14 14:40:00,
2013-06-14 04:45:00,75.3,68.7,30.06,NE,51,3.0,18.0,80,0.00,,---,0.04,VWS V14.00,2013-06-14 14:45:00,
2013-06-14 04:50:00,75.3,68.7,30.07,NE,51,3.0,18.0,80,0.00,,---,0.04,VWS V14.00,2013-06-14 14:50:00,
2013-06-14 04:55:00,75.2,68.2,30.07,NE,46,5.0,18.0,79,0.00,,---,0.04,VWS V14.00,2013-06-14 14:55:00,
2013-06-14 05:00:00,75.2,67.9,30.07,NE,36,9.0,18.0,78,0.00,,---,0.04,VWS V14.00,2013-06-14 15:00:00,
2013-06-14 05:05:00,75.1,67.8,30.07,SE,138,10.0,10.0,78,0.00,,---,0.04,VWS V14.00,2013-06-14 15:05:00,
2013-06-14 05:10:00,75.2,67.9,30.08,ENE,78,4.0,16.0,78,0.00,,---,0.04,VWS V14.00,2013-06-14 15:10:00,
2013-06-14 05:15:00,75.3,68.3,30.08,ENE,67,6.0,16.0,79,0.00,,---,0.04,VWS V14.00,2013-06-14 15:15:00,
2013-06-14 05:20:00,75.0,68.4,30.08,SSE,157,9.0,17.0,80,0.00,,---,0.04,VWS V14.00,2013-06-14 15:20:00,
2013-06-14 05:25:00,74.1,68.3,30.08,ENE,59,10.0,17.0,82,0.00,,---,0.04,VWS V14.00,2013-06-14 15:25:00,
2013-06-14 05:30:00,73.6,68.5,30.08,SE,144,7.0,17.0,84,0.00,,---,0.04,VWS V14.00,2013-06-14 15:30:00,
2013-06-14 05:35:00,73.2,68.4,30.08,East,94,1.0,6.0,85,0.00,,---,0.04,VWS V14.00,2013-06-14 15:35:00,
2013-06-14 05:40:00,73.0,68.6,30.08,SE,140,4.0,13.0,86,0.00,,---,0.04,VWS V14.00,2013-06-14 15:40:00,
2013-06-14 05:45:00,72.9,68.5,30.08,SE,140,4.0,13.0,86,0.00,,---,0.04,VWS V14.00,2013-06-14 15:45:00,
2013-06-14 05:50:00,72.9,68.8,30.08,SE,140,0.0,13.0,87,0.00,,---,0.04,VWS V14.00,2013-06-14 15:50:00,
2013-06-14 05:55:00,73.0,68.9,30.08,SE,140,1.0,13.0,87,0.00,,---,0.04,VWS V14.00,2013-06-14 15:55:00,
2013-06-14 06:00:00,73.0,69.2,30.08,SE,140,1.0,13.0,88,0.00,,---,0.04,VWS V14.00,2013-06-14 16:00:00,
2013-06-14 06:05:00,73.0,68.9,30.08,North,360,2.0,12.0,87,0.00,,---,0.04,VWS V14.00,2013-06-14 16:05:00,
2013-06-14 06:10:00,73.1,68.7,30.08,SE,140,4.0,13.0,86,0.00,,---,0.04,VWS V14.00,2013-06-14 16:10:00,
2013-06-14 06:15:00,73.7,68.9,30.08,ENE,67,4.0,15.0,85,0.00,,---,0.04,VWS V14.00,2013-06-14 16:15:00,
2013-06-14 06:20:00,74.1,69.0,30.08,East,81,1.0,15.0,84,0.00,,---,0.04,VWS V14.00,2013-06-14 16:20:00,
2013-06-14 06:25:00,74.4,68.9,30.08,ENE,69,6.0,15.0,83,0.00,,---,0.04,VWS V14.00,2013-06-14 16:25:00,
2013-06-14 06:30:00,74.7,68.8,30.08,ENE,61,0.0,15.0,82,0.00,,---,0.04,VWS V14.00,2013-06-14 16:30:00,
2013-06-14 06:35:00,74.8,68.9,30.08,NE,51,8.0,11.0,82,0.00,,---,0.04,VWS V14.00,2013-06-14 16:35:00,
2013-06-14 06:40:00,75.1,69.2,30.08,NE,38,7.0,11.0,82,0.00,,---,0.04,VWS V14.00,2013-06-14 16:40:00,
2013-06-14 06:45:00,75.2,69.0,30.08,ENE,59,3.0,11.0,81,0.00,,---,0.04,VWS V14.00,2013-06-14 16:45:00,
2013-06-14 06:50:00,75.3,69.1,30.08,ENE,76,4.0,11.0,81,0.00,,---,0.04,VWS V14.00,2013-06-14 16:50:00,
2013-06-14 06:55:00,75.5,69.6,30.08,SSE,150,2.0,11.0,82,0.00,,---,0.04,VWS V14.00,2013-06-14 16:55:00,
2013-06-14 07:00:00,75.7,69.1,30.08,ENE,74,3.0,15.0,80,0.00,,---,0.04,VWS V14.00,2013-06-14 17:00:00,
2013-06-14 07:05:00,75.9,68.9,30.08,NNE,27,3.0,5.0,79,0.00,,---,0.04,VWS V14.00,2013-06-14 17:05:00,
2013-06-14 07:10:00,76.0,69.0,30.08,WNW,290,5.0,15.0,79,0.00,,---,0.04,VWS V14.00,2013-06-14 17:10:00,
2013-06-14 07:15:00,75.9,68.6,30.09,NE,51,3.0,15.0,78,0.00,,---,0.04,VWS V14.00,2013-06-14 17:15:00,
2013-06-14 07:20:00,76.0,69.0,30.09,NE,53,2.0,17.0,79,0.00,,---,0.04,VWS V14.00,2013-06-14 17:20:00,
2013-06-14 07:25:00,76.2,69.2,30.09,ESE,121,7.0,17.0,79,0.00,,---,0.04,VWS V14.00,2013-06-14 17:25:00,
2013-06-14 07:30:00,76.3,68.6,30.09,NE,55,2.0,17.0,77,0.00,,---,0.04,VWS V14.00,2013-06-14 17:30:00,
2013-06-14 07:35:00,76.4,68.7,30.09,NE,46,4.0,13.0,77,0.00,,---,0.04,VWS V14.00,2013-06-14 17:35:00,
2013-06-14 07:40:00,76.5,69.1,30.09,ENE,69,5.0,13.0,78,0.00,,---,0.04,VWS V14.00,2013-06-14 17:40:00,
2013-06-14 07:45:00,76.5,69.1,30.09,ENE,61,3.0,13.0,78,0.00,,---,0.04,VWS V14.00,2013-06-14 17:45:00,
2013-06-14 07:50:00,76.4,68.7,30.09,ENE,67,4.0,13.0,77,0.00,,---,0.04,VWS V14.00,2013-06-14 17:50:00,
2013-06-14 07:55:00,76.2,68.8,30.09,NE,41,5.0,16.0,78,0.00,,---,0.04,VWS V14.00,2013-06-14 17:55:00,
2013-06-14 08:00:00,76.2,68.8,30.10,ENE,59,2.0,21.0,78,0.00,,---,0.04,VWS V14.00,2013-06-14 18:00:00,
2013-06-14 08:05:00,76.3,69.3,30.10,North,360,1.0,7.0,79,0.00,,---,0.04,VWS V14.00,2013-06-14 18:05:00,
2013-06-14 08:10:00,76.6,68.9,30.10,ENE,63,3.0,14.0,77,0.00,,---,0.04,VWS V14.00,2013-06-14 18:10:00,
2013-06-14 08:15:00,76.8,69.1,30.10,NE,41,2.0,14.0,77,0.00,,---,0.04,VWS V14.00,2013-06-14 18:15:00,
2013-06-14 08:20:00,77.0,68.9,30.10,East,92,2.0,14.0,76,0.00,,---,0.04,VWS V14.00,2013-06-14 18:20:00,
2013-06-14 08:25:00,77.2,69.1,30.10,ENE,72,5.0,14.0,76,0.00,,---,0.04,VWS V14.00,2013-06-14 18:25:00,
2013-06-14 08:30:00,77.4,68.9,30.10,ENE,69,3.0,14.0,75,0.00,,---,0.04,VWS V14.00,2013-06-14 18:30:00,
2013-06-14 08:35:00,77.5,69.0,30.10,SE,126,0.0,7.0,75,0.00,,---,0.04,VWS V14.00,2013-06-14 18:35:00,
2013-06-14 08:40:00,77.6,68.7,30.10,NE,35,6.0,10.0,74,0.00,,---,0.04,VWS V14.00,2013-06-14 18:40:00,
2013-06-14 08:45:00,77.6,68.7,30.10,East,88,2.0,10.0,74,0.00,,---,0.04,VWS V14.00,2013-06-14 18:45:00,
2013-06-14 08:50:00,77.6,68.7,30.10,SSE,148,9.0,15.0,74,0.00,,---,0.04,VWS V14.00,2013-06-14 18:50:00,
2013-06-14 08:55:00,77.8,69.2,30.10,ENE,76,5.0,15.0,75,0.00,,---,0.04,VWS V14.00,2013-06-14 18:55:00,
2013-06-14 09:00:00,78.0,69.1,30.10,East,82,1.0,15.0,74,0.00,,---,0.04,VWS V14.00,2013-06-14 19:00:00,
2013-06-14 09:05:00,78.0,69.1,30.10,ENE,61,14.0,14.0,74,0.00,,---,0.04,VWS V14.00,2013-06-14 19:05:00,
2013-06-14 09:10:00,78.2,69.2,30.10,SE,143,2.0,14.0,74,0.00,,---,0.04,VWS V14.00,2013-06-14 19:10:00,
2013-06-14 09:15:00,78.4,69.4,30.10,ENE,62,6.0,15.0,74,0.00,,---,0.04,VWS V14.00,2013-06-14 19:15:00,
2013-06-14 09:20:00,78.6,69.6,30.10,SE,134,5.0,15.0,74,0.00,,---,0.04,VWS V14.00,2013-06-14 19:20:00,
2013-06-14 09:25:00,78.6,69.2,30.10,NE,51,3.0,15.0,73,0.00,,---,0.04,VWS V14.00,2013-06-14 19:25:00,
2013-06-14 09:30:00,78.7,69.3,30.10,North,9,5.0,15.0,73,0.00,,---,0.04,VWS V14.00,2013-06-14 19:30:00,
2013-06-14 09:35:00,78.8,70.2,30.10,ENE,63,6.0,7.0,75,0.00,,---,0.04,VWS V14.00,2013-06-14 19:35:00,
2013-06-14 09:40:00,79.0,69.6,30.10,NE,42,1.0,12.0,73,0.00,,---,0.04,VWS V14.00,2013-06-14 19:40:00,
2013-06-14 09:45:00,79.1,69.7,30.10,ENE,65,0.0,12.0,73,0.00,,---,0.04,VWS V14.00,2013-06-14 19:45:00,
2013-06-14 09:50:00,78.9,69.5,30.10,NE,40,3.0,12.0,73,0.00,,---,0.04,VWS V14.00,2013-06-14 19:50:00,
2013-06-14 09:55:00,78.8,69.4,30.10,ENE,61,3.0,12.0,73,0.00,,---,0.04,VWS V14.00,2013-06-14 19:55:00,
2013-06-14 10:00:00,78.8,69.0,30.10,ENE,70,4.0,13.0,72,0.00,,---,0.04,VWS V14.00,2013-06-14 20:00:00,
2013-06-14 10:05:00,78.7,69.7,30.10,ENE,58,6.0,8.0,74,0.00,,---,0.04,VWS V14.00,2013-06-14 20:05:00,
2013-06-14 10:10:00,78.8,69.4,30.10,ENE,70,3.0,12.0,73,0.00,,---,0.04,VWS V14.00,2013-06-14 20:10:00,
2013-06-14 10:15:00,78.8,69.4,30.10,ENE,63,4.0,13.0,73,0.00,,---,0.04,VWS V14.00,2013-06-14 20:15:00,
2013-06-14 10:20:00,79.0,69.6,30.10,ENE,69,7.0,13.0,73,0.00,,---,0.04,VWS V14.00,2013-06-14 20:20:00,
2013-06-14 10:25:00,79.2,69.4,30.10,NE,43,3.0,13.0,72,0.00,,---,0.04,VWS V14.00,2013-06-14 20:25:00,
2013-06-14 10:29:00,79.5,69.3,30.10,NE,37,7.0,13.0,71,0.00,,---,0.04,VWS V14.00,2013-06-14 20:29:00,
2013-06-14 10:34:00,79.7,69.9,30.10,ENE,70,4.0,8.0,72,0.00,,---,0.04,VWS V14.00,2013-06-14 20:34:00,
2013-06-14 10:39:00,79.6,69.4,30.10,NE,46,3.0,11.0,71,0.00,,---,0.04,VWS V14.00,2013-06-14 20:39:00,
2013-06-14 10:44:00,79.6,69.8,30.09,SSE,161,4.0,11.0,72,0.00,,---,0.04,VWS V14.00,2013-06-14 20:44:00,
2013-06-14 10:49:00,80.0,70.2,30.09,North,355,6.0,11.0,72,0.00,,---,0.04,VWS V14.00,2013-06-14 20:49:00,
2013-06-14 10:54:00,80.4,70.1,30.10,East,94,5.0,11.0,71,0.00,,---,0.04,VWS V14.00,2013-06-14 20:54:00,
2013-06-14 10:59:00,80.9,70.2,30.10,East,86,2.0,11.0,70,0.00,,---,0.04,VWS V14.00,2013-06-14 20:59:00,
2013-06-14 11:04:00,80.5,69.8,30.10,NE,56,2.0,7.0,70,0.00,,---,0.04,VWS V14.00,2013-06-14 21:04:00,
2013-06-14 11:09:00,80.4,69.7,30.09,NNE,28,3.0,10.0,70,0.00,,---,0.04,VWS V14.00,2013-06-14 21:09:00,
2013-06-14 11:14:00,80.5,69.8,30.09,NNE,30,4.0,16.0,70,0.00,,---,0.04,VWS V14.00,2013-06-14 21:14:00,
2013-06-14 11:19:00,80.2,69.5,30.09,ENE,72,0.0,16.0,70,0.00,,---,0.04,VWS V14.00,2013-06-14 21:19:00,
2013-06-14 11:24:00,80.3,70.1,30.09,NE,38,7.0,16.0,71,0.00,,---,0.04,VWS V14.00,2013-06-14 21:24:00,
2013-06-14 11:29:00,80.1,69.9,30.09,ENE,61,6.0,16.0,71,0.00,,---,0.04,VWS V14.00,2013-06-14 21:29:00,
2013-06-14 11:34:00,80.2,69.9,30.09,North,350,4.0,8.0,71,0.00,,---,0.04,VWS V14.00,2013-06-14 21:34:00,
2013-06-14 11:39:00,80.4,70.1,30.09,ENE,63,3.0,8.0,71,0.00,,---,0.04,VWS V14.00,2013-06-14 21:39:00,
2013-06-14 11:44:00,80.1,69.9,30.08,SE,134,6.0,10.0,71,0.00,,---,0.04,VWS V14.00,2013-06-14 21:44:00,
2013-06-14 11:49:00,80.5,70.2,30.08,NW,323,6.0,10.0,71,0.00,,---,0.04,VWS V14.00,2013-06-14 21:49:00,
2013-06-14 11:54:00,80.7,70.0,30.08,ENE,75,2.0,10.0,70,0.00,,---,0.04,VWS V14.00,2013-06-14 21:54:00,
2013-06-14 11:59:00,80.4,69.7,30.09,NNW,347,11.0,19.0,70,0.00,,---,0.04,VWS V14.00,2013-06-14 21:59:00,
2013-06-14 12:04:00,80.3,70.1,30.08,NE,46,11.0,11.0,71,0.00,,---,0.04,VWS V14.00,2013-06-14 22:04:00,
2013-06-14 12:09:00,79.8,70.0,30.08,NNE,19,1.0,12.0,72,0.00,,---,0.04,VWS V14.00,2013-06-14 22:09:00,
2013-06-14 12:14:00,80.2,69.9,30.08,ENE,60,0.0,12.0,71,0.00,,---,0.04,VWS V14.00,2013-06-14 22:14:00,
2013-06-14 12:19:00,80.8,70.1,30.08,South,171,0.0,12.0,70,0.00,,---,0.04,VWS V14.00,2013-06-14 22:19:00,
2013-06-14 12:24:00,81.6,71.3,30.08,ENE,61,5.0,12.0,71,0.00,,---,0.04,VWS V14.00,2013-06-14 22:24:00,
2013-06-14 12:29:00,81.5,70.4,30.08,ENE,59,4.0,12.0,69,0.00,,---,0.04,VWS V14.00,2013-06-14 22:29:00,
2013-06-14 12:34:00,81.5,70.4,30.08,NE,43,1.0,17.0,69,0.00,,---,0.04,VWS V14.00,2013-06-14 22:34:00,
2013-06-14 12:39:00,81.7,69.7,30.08,NNE,19,5.0,17.0,67,0.00,,---,0.04,VWS V14.00,2013-06-14 22:39:00,
2013-06-14 12:44:00,81.7,69.2,30.07,ENE,78,4.0,17.0,66,0.00,,---,0.04,VWS V14.00,2013-06-14 22:44:00,
2013-06-14 12:49:00,81.3,69.7,30.07,NE,45,4.0,17.0,68,0.00,,---,0.04,VWS V14.00,2013-06-14 22:49:00,
2013-06-14 12:54:00,81.0,69.9,30.07,NE,50,5.0,17.0,69,0.00,,---,0.04,VWS V14.00,2013-06-14 22:54:00,
2013-06-14 12:59:00,80.9,69.4,30.07,East,98,4.0,17.0,68,0.00,,---,0.04,VWS V14.00,2013-06-14 22:59:00,
2013-06-14 13:04:00,81.0,69.4,30.07,ENE,65,5.0,14.0,68,0.00,,---,0.04,VWS V14.00,2013-06-14 23:04:00,
2013-06-14 13:09:00,81.0,69.4,30.07,NE,48,3.0,14.0,68,0.00,,---,0.04,VWS V14.00,2013-06-14 23:09:00,
2013-06-14 13:14:00,80.8,69.7,30.07,ENE,69,4.0,14.0,69,0.00,,---,0.04,VWS V14.00,2013-06-14 23:14:00,
2013-06-14 13:19:00,81.1,69.6,30.07,NE,43,6.0,14.0,68,0.00,,---,0.04,VWS V14.00,2013-06-14 23:19:00,
2013-06-14 13:24:00,81.4,69.8,30.06,NE,46,4.0,14.0,68,0.00,,---,0.04,VWS V14.00,2013-06-14 23:24:00,
2013-06-14 13:29:00,81.1,69.6,30.06,NE,46,0.0,14.0,68,0.00,,---,0.04,VWS V14.00,2013-06-14 23:29:00,
2013-06-14 13:34:00,81.1,69.6,30.06,ENE,67,1.0,12.0,68,0.00,,---,0.04,VWS V14.00,2013-06-14 23:34:00,
2013-06-14 13:39:00,81.2,70.5,30.06,NE,55,7.0,12.0,70,0.00,,---,0.04,VWS V14.00,2013-06-14 23:39:00,
2013-06-14 13:44:00,81.5,70.4,30.06,East,92,4.0,12.0,69,0.00,,---,0.04,VWS V14.00,2013-06-14 23:44:00,
2013-06-14 13:49:00,81.8,70.2,30.06,NE,46,7.0,12.0,68,0.00,,---,0.04,VWS V14.00,2013-06-14 23:49:00,
2013-06-14 13:54:00,80.6,69.1,30.05,NNW,333,2.0,15.0,68,0.00,,---,0.04,VWS V14.00,2013-06-14 23:54:00,
2013-06-14 13:59:00,80.7,70.0,30.05,NE,54,5.0,15.0,70,0.00,,---,0.04,VWS V14.00,2013-06-14 23:59:00,
2013-06-14 14:04:00,80.6,69.5,30.05,SE,139,2.0,7.0,69,0.00,,---,0.04,VWS V14.00,2013-06-15 00:04:00,
2013-06-14 14:09:00,80.5,69.8,30.05,ENE,64,2.0,10.0,70,0.00,,---,0.04,VWS V14.00,2013-06-15 00:09:00,
2013-06-14 14:14:00,80.6,69.9,30.05,North,360,5.0,10.0,70,0.00,,---,0.04,VWS V14.00,2013-06-15 00:14:00,
2013-06-14 14:19:00,80.5,69.8,30.04,ENE,73,6.0,11.0,70,0.00,,---,0.04,VWS V14.00,2013-06-15 00:19:00,
2013-06-14 14:24:00,80.2,69.5,30.04,NE,39,5.0,13.0,70,0.00,,---,0.04,VWS V14.00,2013-06-15 00:24:00,
2013-06-14 14:29:00,80.2,69.5,30.05,ENE,61,6.0,13.0,70,0.00,,---,0.04,VWS V14.00,2013-06-15 00:29:00,
2013-06-14 14:34:00,80.7,69.6,30.04,NE,53,4.0,10.0,69,0.00,,---,0.04,VWS V14.00,2013-06-15 00:34:00,
2013-06-14 14:39:00,80.5,69.0,30.04,ENE,63,8.0,16.0,68,0.00,,---,0.04,VWS V14.00,2013-06-15 00:39:00,
2013-06-14 14:44:00,80.6,69.5,30.04,East,86,4.0,16.0,69,0.00,,---,0.04,VWS V14.00,2013-06-15 00:44:00,
2013-06-14 14:49:00,80.5,69.0,30.04,ESE,121,4.0,16.0,68,0.00,,---,0.04,VWS V14.00,2013-06-15 00:49:00,
2013-06-14 14:54:00,80.9,69.8,30.03,East,96,1.0,16.0,69,0.00,,---,0.04,VWS V14.00,2013-06-15 00:54:00,
2013-06-14 14:59:00,81.3,69.3,30.03,ENE,71,0.0,16.0,67,0.00,,---,0.04,VWS V14.00,2013-06-15 00:59:00,
2013-06-14 15:04:00,81.1,69.6,30.03,NNE,23,6.0,9.0,68,0.00,,---,0.04,VWS V14.00,2013-06-15 01:04:00,
2013-06-14 15:09:00,80.9,68.9,30.03,ENE,59,2.0,12.0,67,0.00,,---,0.04,VWS V14.00,2013-06-15 01:09:00,
2013-06-14 15:14:00,80.8,69.3,30.03,ENE,69,11.0,14.0,68,0.00,,---,0.04,VWS V14.00,2013-06-15 01:14:00,
2013-06-14 15:19:00,80.4,68.9,30.03,ENE,59,6.0,19.0,68,0.00,,---,0.04,VWS V14.00,2013-06-15 01:19:00,
2013-06-14 15:24:00,80.7,69.2,30.03,ENE,65,11.0,19.0,68,0.00,,---,0.04,VWS V14.00,2013-06-15 01:24:00,
2013-06-14 15:29:00,80.3,68.3,30.03,ENE,66,3.0,19.0,67,0.00,,---,0.04,VWS V14.00,2013-06-15 01:29:00,
2013-06-14 15:34:00,80.6,68.6,30.03,NE,47,4.0,8.0,67,0.00,,---,0.04,VWS V14.00,2013-06-15 01:34:00,
2013-06-14 15:39:00,80.6,68.6,30.02,NNE,15,4.0,13.0,67,0.00,,---,0.04,VWS V14.00,2013-06-15 01:39:00,
2013-06-14 15:44:00,80.5,68.5,30.02,ENE,59,2.0,14.0,67,0.00,,---,0.04,VWS V14.00,2013-06-15 01:44:00,
2013-06-14 15:49:00,80.6,68.6,30.02,East,98,2.0,14.0,67,0.00,,---,0.04,VWS V14.00,2013-06-15 01:49:00,
2013-06-14 15:54:00,80.3,68.8,30.02,NE,42,3.0,14.0,68,0.00,,---,0.04,VWS V14.00,2013-06-15 01:54:00,
2013-06-14 15:59:00,80.2,69.1,30.02,ENE,61,5.0,14.0,69,0.00,,---,0.04,VWS V14.00,2013-06-15 01:59:00,
2013-06-14 16:04:00,80.1,69.4,30.02,NE,43,1.0,6.0,70,0.00,,---,0.04,VWS V14.00,2013-06-15 02:04:00,
2013-06-14 16:09:00,80.5,69.4,30.02,ENE,57,4.0,11.0,69,0.00,,---,0.04,VWS V14.00,2013-06-15 02:09:00,
2013-06-14 16:14:00,80.6,69.5,30.02,NE,45,0.0,11.0,69,0.00,,---,0.04,VWS V14.00,2013-06-15 02:14:00,
2013-06-14 16:19:00,80.7,69.2,30.01,NE,53,6.0,11.0,68,0.00,,---,0.04,VWS V14.00,2013-06-15 02:19:00,
2013-06-14 16:24:00,80.5,69.4,30.01,East,101,4.0,11.0,69,0.00,,---,0.04,VWS V14.00,2013-06-15 02:24:00,
2013-06-14 16:29:00,80.2,68.7,30.01,NE,54,5.0,13.0,68,0.00,,---,0.04,VWS V14.00,2013-06-15 02:29:00,
2013-06-14 16:34:00,79.7,69.1,30.01,NE,49,5.0,11.0,70,0.00,,---,0.04,VWS V14.00,2013-06-15 02:34:00,
2013-06-14 16:39:00,79.3,69.1,30.02,East,81,6.0,15.0,71,0.00,,---,0.04,VWS V14.00,2013-06-15 02:39:00,
2013-06-14 16:44:00,79.2,69.0,30.02,ESE,112,1.0,15.0,71,0.00,,---,0.04,VWS V14.00,2013-06-15 02:44:00,
2013-06-14 16:49:00,79.2,69.0,30.02,ENE,61,7.0,16.0,71,0.00,,---,0.04,VWS V14.00,2013-06-15 02:49:00,
2013-06-14 16:54:00,78.8,69.0,30.02,ENE,65,2.0,16.0,72,0.00,,---,0.04,VWS V14.00,2013-06-15 02:54:00,
2013-06-14 16:59:00,78.4,69.0,30.01,NE,47,0.0,16.0,73,0.00,,---,0.04,VWS V14.00,2013-06-15 02:59:00,
2013-06-14 17:04:00,78.8,69.0,30.01,NNE,31,3.0,7.0,72,0.00,,---,0.04,VWS V14.00,2013-06-15 03:04:00,
2013-06-14 17:09:00,78.9,68.7,30.01,SE,142,0.0,13.0,71,0.00,,---,0.04,VWS V14.00,2013-06-15 03:09:00,
2013-06-14 17:14:00,78.8,68.6,30.01,NE,42,6.0,13.0,71,0.00,,---,0.04,VWS V14.00,2013-06-15 03:14:00,
2013-06-14 17:19:00,78.7,68.5,30.02,NE,53,2.0,13.0,71,0.00,,---,0.04,VWS V14.00,2013-06-15 03:19:00,
2013-06-14 17:24:00,78.7,68.9,30.01,ENE,64,2.0,13.0,72,0.00,,---,0.04,VWS V14.00,2013-06-15 03:24:00,
2013-06-14 17:29:00,78.6,68.8,30.01,ENE,78,2.0,13.0,72,0.00,,---,0.04,VWS V14.00,2013-06-15 03:29:00,
2013-06-14 17:34:00,78.2,68.0,30.01,NE,38,1.0,8.0,71,0.00,,---,0.04,VWS V14.00,2013-06-15 03:34:00,
2013-06-14 17:39:00,78.3,68.9,30.01,NE,38,2.0,8.0,73,0.00,,---,0.04,VWS V14.00,2013-06-15 03:39:00,
2013-06-14 17:44:00,78.3,68.9,30.01,NE,55,1.0,9.0,73,0.00,,---,0.04,VWS V14.00,2013-06-15 03:44:00,
2013-06-14 17:49:00,77.9,67.8,30.01,ENE,66,4.0,10.0,71,0.00,,---,0.04,VWS V14.00,2013-06-15 03:49:00,
2013-06-14 17:54:00,77.5,68.2,30.01,ENE,61,0.0,13.0,73,0.00,,---,0.04,VWS V14.00,2013-06-15 03:54:00,
2013-06-14 17:59:00,77.5,68.6,30.02,ENE,72,3.0,13.0,74,0.00,,---,0.04,VWS V14.00,2013-06-15 03:59:00,
2013-06-14 18:01:00,77.5,68.6,30.02,ENE,72,2.0,13.0,74,0.00,,---,0.04,VWS V14.00,2013-06-15 04:01:00,
2013-06-14 18:06:00,77.3,68.4,30.02,East,81,3.0,12.0,74,0.00,,---,0.04,VWS V14.00,2013-06-15 04:06:00,
2013-06-14 18:11:00,77.1,68.2,30.02,NE,36,2.0,12.0,74,0.00,,---,0.04,VWS V14.00,2013-06-15 04:11:00,
2013-06-14 18:16:00,77.0,68.5,30.02,NE,38,0.0,14.0,75,0.00,,---,0.04,VWS V14.00,2013-06-15 04:16:00,
2013-06-14 18:21:00,77.1,68.6,30.02,NE,38,6.0,14.0,75,0.00,,---,0.04,VWS V14.00,2013-06-15 04:21:00,
2013-06-14 18:26:00,77.0,68.5,30.02,ENE,70,1.0,14.0,75,0.00,,---,0.04,VWS V14.00,2013-06-15 04:26:00,
2013-06-14 18:31:00,77.0,68.5,30.02,ENE,65,3.0,14.0,75,0.00,,---,0.04,VWS V14.00,2013-06-15 04:31:00,
2013-06-14 18:36:00,76.9,68.4,30.02,NE,51,4.0,16.0,75,0.00,,---,0.04,VWS V14.00,2013-06-15 04:36:00,
2013-06-14 18:41:00,76.9,68.8,30.02,ENE,61,2.0,16.0,76,0.00,,---,0.04,VWS V14.00,2013-06-15 04:41:00,
2013-06-14 18:46:00,76.9,68.8,30.02,North,355,9.0,16.0,76,0.00,,---,0.04,VWS V14.00,2013-06-15 04:46:00,
2013-06-14 18:51:00,76.8,68.7,30.02,ENE,59,4.0,16.0,76,0.00,,---,0.04,VWS V14.00,2013-06-15 04:51:00,
2013-06-14 18:56:00,76.6,68.5,30.02,East,99,2.0,16.0,76,0.00,,---,0.04,VWS V14.00,2013-06-15 04:56:00,
2013-06-14 19:01:00,76.6,68.5,30.02,ENE,63,0.0,16.0,76,0.00,,---,0.04,VWS V14.00,2013-06-15 05:01:00,
2013-06-14 19:06:00,76.5,68.4,30.02,NE,38,5.0,10.0,76,0.00,,---,0.04,VWS V14.00,2013-06-15 05:06:00,
2013-06-14 19:11:00,76.4,68.3,30.02,ENE,63,3.0,13.0,76,0.00,,---,0.04,VWS V14.00,2013-06-15 05:11:00,
2013-06-14 19:16:00,76.4,68.7,30.03,ENE,73,4.0,14.0,77,0.00,,---,0.04,VWS V14.00,2013-06-15 05:16:00,
2013-06-14 19:21:00,76.3,68.2,30.03,ENE,71,2.0,14.0,76,0.00,,---,0.04,VWS V14.00,2013-06-15 05:21:00,
2013-06-14 19:26:00,76.2,68.1,30.03,ENE,76,4.0,14.0,76,0.00,,---,0.04,VWS V14.00,2013-06-15 05:26:00,
2013-06-14 19:31:00,76.1,68.0,30.03,NE,52,4.0,14.0,76,0.00,,---,0.04,VWS V14.00,2013-06-15 05:31:00,
2013-06-14 19:36:00,76.1,68.0,30.04,SE,126,2.0,6.0,76,0.00,,---,0.04,VWS V14.00,2013-06-15 05:36:00,
2013-06-14 19:41:00,76.0,67.9,30.04,East,96,1.0,6.0,76,0.00,,---,0.04,VWS V14.00,2013-06-15 05:41:00,
2013-06-14 19:46:00,76.2,68.5,30.04,ENE,61,1.0,10.0,77,0.00,,---,0.04,VWS V14.00,2013-06-15 05:46:00,
2013-06-14 19:51:00,76.3,68.6,30.03,NE,34,6.0,10.0,77,0.00,,---,0.04,VWS V14.00,2013-06-15 05:51:00,
2013-06-14 19:56:00,76.3,68.6,30.03,ENE,71,13.0,13.0,77,0.00,,---,0.04,VWS V14.00,2013-06-15 05:56:00,
2013-06-14 20:01:00,76.3,68.6,30.03,NE,53,4.0,17.0,77,0.00,,---,0.04,VWS V14.00,2013-06-15 06:01:00,
2013-06-14 20:06:00,76.2,68.5,30.04,NE,39,6.0,13.0,77,0.00,,---,0.04,VWS V14.00,2013-06-15 06:06:00,
2013-06-14 20:11:00,76.2,68.8,30.03,North,9,3.0,13.0,78,0.00,,---,0.04,VWS V14.00,2013-06-15 06:11:00,
2013-06-14 20:16:00,76.2,68.8,30.04,ENE,70,2.0,15.0,78,0.00,,---,0.04,VWS V14.00,2013-06-15 06:16:00,
2013-06-14 20:21:00,76.2,68.8,30.04,ENE,64,4.0,15.0,78,0.00,,---,0.04,VWS V14.00,2013-06-15 06:21:00,
2013-06-14 20:26:00,76.1,68.8,30.04,NE,35,5.0,15.0,78,0.00,,---,0.04,VWS V14.00,2013-06-15 06:26:00,
2013-06-14 20:31:00,76.0,68.3,30.04,NE,55,2.0,15.0,77,0.00,,---,0.04,VWS V14.00,2013-06-15 06:31:00,
2013-06-14 20:36:00,75.8,68.1,30.04,NNE,14,9.0,9.0,77,0.00,,---,0.04,VWS V14.00,2013-06-15 06:36:00,
2013-06-14 20:41:00,75.9,68.2,30.04,NE,44,8.0,9.0,77,0.00,,---,0.04,VWS V14.00,2013-06-15 06:41:00,
2013-06-14 20:46:00,75.9,68.6,30.04,North,10,0.0,11.0,78,0.00,,---,0.04,VWS V14.00,2013-06-15 06:46:00,
2013-06-14 20:51:00,75.9,68.2,30.04,NNE,14,0.0,11.0,77,0.00,,---,0.04,VWS V14.00,2013-06-15 06:51:00,
2013-06-14 20:56:00,75.9,68.6,30.05,NE,42,1.0,11.0,78,0.00,,---,0.04,VWS V14.00,2013-06-15 06:56:00,
2013-06-14 21:01:00,75.9,68.6,30.05,NE,43,1.0,11.0,78,0.00,,---,0.04,VWS V14.00,2013-06-15 07:01:00,
2013-06-14 21:06:00,75.9,68.6,30.05,NNE,23,2.0,6.0,78,0.00,,---,0.04,VWS V14.00,2013-06-15 07:06:00,
2013-06-14 21:11:00,75.8,68.1,30.05,ENE,63,1.0,21.0,77,0.00,,---,0.04,VWS V14.00,2013-06-15 07:11:00,
2013-06-14 21:16:00,75.8,68.5,30.05,ENE,58,2.0,21.0,78,0.00,,---,0.04,VWS V14.00,2013-06-15 07:16:00,
2013-06-14 21:21:00,75.9,68.6,30.05,ESE,113,5.0,21.0,78,0.00,,---,0.04,VWS V14.00,2013-06-15 07:21:00,
2013-06-14 21:26:00,75.9,68.6,30.05,NNE,32,3.0,21.0,78,0.00,,---,0.04,VWS V14.00,2013-06-15 07:26:00,
2013-06-14 21:31:00,75.9,68.6,30.05,North,360,2.0,21.0,78,0.00,,---,0.04,VWS V14.00,2013-06-15 07:31:00,
2013-06-14 21:36:00,75.8,68.5,30.05,NNE,22,2.0,6.0,78,0.00,,---,0.04,VWS V14.00,2013-06-15 07:36:00,
2013-06-14 21:41:00,75.8,68.5,30.05,NE,56,6.0,10.0,78,0.00,,---,0.04,VWS V14.00,2013-06-15 07:41:00,
2013-06-14 21:46:00,75.9,68.6,30.05,East,98,0.0,10.0,78,0.00,,---,0.04,VWS V14.00,2013-06-15 07:46:00,
2013-06-14 21:51:00,75.8,68.5,30.06,North,355,5.0,13.0,78,0.00,,---,0.04,VWS V14.00,2013-06-15 07:51:00,
2013-06-14 21:56:00,75.8,68.5,30.06,ENE,59,3.0,13.0,78,0.00,,---,0.04,VWS V14.00,2013-06-15 07:56:00,
2013-06-14 22:01:00,75.7,68.4,30.06,ENE,61,2.0,14.0,78,0.00,,---,0.04,VWS V14.00,2013-06-15 08:01:00,
2013-06-14 22:06:00,75.7,68.4,30.06,NE,44,10.0,10.0,78,0.00,,---,0.04,VWS V14.00,2013-06-15 08:06:00,
2013-06-14 22:11:00,75.7,68.4,30.06,NE,40,1.0,13.0,78,0.00,,---,0.04,VWS V14.00,2013-06-15 08:11:00,
2013-06-14 22:16:00,75.8,68.5,30.06,NE,47,3.0,13.0,78,0.00,,---,0.04,VWS V14.00,2013-06-15 08:16:00,
2013-06-14 22:21:00,75.8,68.5,30.06,NE,38,4.0,13.0,78,0.00,,---,0.04,VWS V14.00,2013-06-15 08:21:00,
2013-06-14 22:26:00,75.8,68.8,30.06,ESE,107,5.0,13.0,79,0.00,,---,0.04,VWS V14.00,2013-06-15 08:26:00,
2013-06-14 22:31:00,75.8,68.8,30.06,ESE,122,1.0,13.0,79,0.00,,---,0.04,VWS V14.00,2013-06-15 08:31:00,
2013-06-14 22:36:00,75.8,68.8,30.06,ESE,120,4.0,10.0,79,0.00,,---,0.04,VWS V14.00,2013-06-15 08:36:00,
2013-06-14 22:41:00,75.7,68.7,30.06,ENE,69,1.0,12.0,79,0.00,,---,0.04,VWS V14.00,2013-06-15 08:41:00,
2013-06-14 22:46:00,75.7,68.7,30.06,ENE,66,0.0,12.0,79,0.00,,---,0.04,VWS V14.00,2013-06-15 08:46:00,
2013-06-14 22:51:00,75.7,68.7,30.06,ENE,76,1.0,12.0,79,0.00,,---,0.04,VWS V14.00,2013-06-15 08:51:00,
2013-06-14 22:56:00,75.6,68.6,30.06,ENE,64,2.0,12.0,79,0.00,,---,0.04,VWS V14.00,2013-06-15 08:56:00,
2013-06-14 23:01:00,75.6,68.6,30.06,NE,47,4.0,12.0,79,0.00,,---,0.04,VWS V14.00,2013-06-15 09:01:00,
2013-06-14 23:06:00,75.6,68.6,30.06,NNE,22,4.0,7.0,79,0.00,,---,0.04,VWS V14.00,2013-06-15 09:06:00,
2013-06-14 23:11:00,75.6,68.6,30.06,NNE,22,2.0,8.0,79,0.00,,---,0.04,VWS V14.00,2013-06-15 09:11:00,
2013-06-14 23:16:00,75.6,68.6,30.06,NNE,24,0.0,8.0,79,0.00,,---,0.04,VWS V14.00,2013-06-15 09:16:00,
2013-06-14 23:21:00,75.5,68.5,30.05,North,355,8.0,13.0,79,0.00,,---,0.04,VWS V14.00,2013-06-15 09:21:00,
2013-06-14 23:26:00,75.5,68.5,30.05,ENE,57,5.0,14.0,79,0.00,,---,0.04,VWS V14.00,2013-06-15 09:26:00,
2013-06-14 23:31:00,75.5,68.5,30.05,ENE,57,5.0,14.0,79,0.00,,---,0.04,VWS V14.00,2013-06-15 09:31:00,
2013-06-14 23:36:00,75.6,68.6,30.05,NE,39,5.0,10.0,79,0.00,,---,0.04,VWS V14.00,2013-06-15 09:36:00,
2013-06-14 23:41:00,75.5,68.5,30.05,ENE,57,8.0,16.0,79,0.00,,---,0.04,VWS V14.00,2013-06-15 09:41:00,
2013-06-14 23:46:00,75.5,68.5,30.05,East,81,6.0,16.0,79,0.00,,---,0.04,VWS V14.00,2013-06-15 09:46:00,
2013-06-14 23:50:00,75.6,68.6,30.05,ENE,67,3.0,16.0,79,0.00,,---,0.04,VWS V14.00,2013-06-15 09:50:00,
2013-06-14 23:55:00,75.5,68.5,30.05,NE,56,2.0,16.0,79,0.00,,---,0.04,VWS V14.00,2013-06-15 09:55:00,